Precipitable_Water
1.23 1.32 1.41 1.43 1.50 1.52 1.52 1.58 1.58 1.57 1.57 1.58 1.51 1.53 1.51 1.47 1.44 1.43 1.47 1.47 1.42 1.39 1.37 1.35 1.27 1.22 1.21 1.15 1.12 1.15 1.13 1.15 1.14 1.17 1.20 1.22 1.23 1.23 1.23 1.24 1.24 1.24 1.23 1.23 1.22 1.22 1.22 1.23 1.21 1.20 1.21 1.20 1.17 1.14 1.16 1.16 1.17 1.15 1.13 1.14 1.10 1.07 1.08 1.13 1.14 1.14 1.03 0.98 1.09 1.04 1.01 1.05 1.04 1.03 1.00 1.03 1.05 1.05 1.08 1.06 1.06 1.05 1.06 1.08 1.12
1.11 1.13 1.24 1.37 1.38 1.51 1.48 1.47 1.50 1.47 1.47 1.49 1.47 1.49 1.49 1.47 1.43 1.43 1.45 1.43 1.41 1.40 1.35 1.29 1.27 1.23 1.17 1.11 1.10 1.10 1.13 1.12 1.12 1.16 1.18 1.20 1.22 1.22 1.22 1.23 1.23 1.24 1.25 1.26 1.24 1.22 1.19 1.18 1.18 1.19 1.22 1.21 1.19 1.20 1.18 1.17 1.15 1.13 1.12 1.08 1.15 1.04 0.99 1.11 1.12 1.04 0.94 0.90 0.82 0.80 0.83 0.99 1.04 1.01 0.97 1.01 1.03 1.01 0.98 0.98 1.00 0.98 0.95 0.96 1.02
1.05 1.11 1.22 1.31 1.37 1.37 1.44 1.45 1.44 1.43 1.43 1.42 1.45 1.43 1.42 1.40 1.41 1.41 1.40 1.39 1.38 1.36 1.31 1.25 1.26 1.24 1.19 1.14 1.13 1.12 1.21 1.21 1.19 1.20 1.22 1.20 1.22 1.23 1.24 1.24 1.25 1.24 1.25 1.25 1.21 1.20 1.18 1.17 1.18 1.20 1.20 1.19 1.15 1.14 1.15 1.13 1.13 1.10 1.11 1.06 1.00 1.05 1.01 1.10 1.08 1.09 0.88 0.90 0.88 0.76 0.71 0.65 0.79 0.94 1.08 1.05 1.03 1.00 1.01 1.02 1.00 0.92 0.90 0.96 1.01
1.00 1.11 1.23 1.34 1.34 1.28 1.33 1.40 1.42 1.40 1.38 1.37 1.37 1.36 1.36 1.37 1.38 1.39 1.38 1.38 1.36 1.34 1.30 1.30 1.29 1.26 1.23 1.22 1.22 1.19 1.14 1.20 1.20 1.21 1.20 1.19 1.18 1.21 1.21 1.22 1.22 1.22 1.23 1.21 1.19 1.17 1.15 1.12 1.14 1.14 1.14 1.15 1.10 1.05 1.06 1.05 1.07 1.06 1.07 1.06 1.05 0.92 0.95 0.96 1.06 1.05 0.99 0.89 0.71 0.70 0.68 0.68 0.59 0.72 0.80 0.86 0.94 0.95 1.01 0.98 0.99 0.96 0.93 0.95 0.99
0.97 1.09 1.18 1.24 1.25 1.27 1.30 1.34 1.38 1.34 1.34 1.33 1.33 1.34 1.36 1.35 1.36 1.37 1.37 1.38 1.39 1.38 1.33 1.30 1.26 1.20 1.19 1.19 1.20 1.17 1.18 1.16 1.12 1.11 1.14 1.15 1.15 1.15 1.15 1.18 1.18 1.17 1.19 1.18 1.16 1.13 1.11 1.09 1.07 1.06 1.04 1.05 1.05 1.02 1.00 0.99 1.00 1.00 1.01 1.00 1.00 0.94 0.88 0.91 0.95 1.01 0.98 1.02 0.88 0.76 0.69 0.61 0.62 0.68 0.76 0.74 0.91 0.94 0.93 0.91 0.93 0.95 0.95 0.96 0.96
0.99 1.05 1.12 1.18 1.26 1.28 1.31 1.33 1.32 1.31 1.30 1.33 1.35 1.35 1.34 1.33 1.33 1.34 1.36 1.36 1.35 1.33 1.31 1.29 1.22 1.15 1.10 1.05 1.00 1.00 0.98 1.01 0.99 1.00 1.03 1.04 1.06 1.13 1.14 1.13 1.11 1.12 1.12 1.12 1.11 1.08 1.04 1.03 1.02 0.99 0.98 0.99 0.99 0.98 0.98 0.98 0.98 0.96 0.96 0.95 0.93 1.01 0.94 0.88 0.87 0.98 1.03 1.00 1.00 0.97 0.90 0.72 0.68 0.75 0.72 0.60 0.80 0.82 0.83 0.89 0.93 0.95 0.93 0.91 0.94
1.05 1.11 1.15 1.14 1.22 1.26 1.27 1.29 1.30 1.27 1.30 1.33 1.32 1.30 1.30 1.29 1.29 1.30 1.30 1.29 1.30 1.27 1.24 1.20 1.14 1.12 1.09 1.04 1.04 1.02 0.97 1.00 1.06 1.08 1.05 1.07 1.10 1.09 1.11 1.10 1.08 1.07 1.07 1.06 1.04 1.02 0.99 0.97 0.96 0.96 0.95 0.94 0.94 0.92 0.89 0.89 0.91 0.92 0.94 0.92 0.90 0.90 0.91 0.81 0.81 0.84 0.90 0.94 0.99 1.02 0.99 0.97 0.96 0.80 0.66 0.72 0.63 0.74 0.82 0.84 0.88 0.92 0.91 0.92 0.92
1.06 1.09 1.17 1.19 1.25 1.26 1.24 1.25 1.26 1.26 1.29 1.30 1.28 1.27 1.25 1.23 1.24 1.24 1.25 1.23 1.23 1.21 1.16 1.14 1.07 1.05 1.03 1.02 1.01 1.00 0.99 0.98 1.03 1.04 1.08 1.08 1.07 1.07 1.07 1.07 1.09 1.07 1.04 1.02 0.99 0.95 0.93 0.92 0.92 0.92 0.90 0.90 0.89 0.87 0.85 0.86 0.86 0.87 0.87 0.87 0.88 0.88 0.87 0.83 0.81 0.86 0.81 0.81 0.91 0.87 0.86 0.89 0.90 0.91 0.92 0.80 0.72 0.64 0.68 0.79 0.83 0.83 0.86 0.90 0.93
1.06 1.07 1.11 1.20 1.26 1.25 1.25 1.23 1.26 1.25 1.24 1.23 1.23 1.23 1.23 1.21 1.19 1.18 1.16 1.17 1.16 1.13 1.09 1.07 1.04 1.02 0.99 0.98 0.95 0.99 1.00 1.00 1.03 1.05 1.05 1.07 1.04 1.06 1.05 1.03 1.04 1.03 0.99 0.94 0.92 0.91 0.90 0.89 0.89 0.88 0.87 0.86 0.84 0.82 0.80 0.79 0.77 0.75 0.75 0.77 0.77 0.79 0.81 0.84 0.85 0.83 0.85 0.82 0.83 0.84 0.87 0.86 0.87 0.88 0.88 0.86 0.75 0.66 0.63 0.65 0.69 0.82 0.87 0.88 0.90
1.06 1.15 1.16 1.20 1.24 1.25 1.25 1.26 1.25 1.25 1.27 1.26 1.25 1.20 1.16 1.14 1.11 1.10 1.09 1.10 1.10 1.07 1.05 1.03 1.02 1.00 0.96 0.94 0.92 0.92 0.95 0.97 0.99 1.00 1.03 1.04 1.01 1.02 1.03 1.01 0.98 0.94 0.91 0.89 0.87 0.87 0.86 0.85 0.83 0.81 0.78 0.77 0.75 0.75 0.75 0.73 0.73 0.73 0.75 0.77 0.78 0.78 0.80 0.82 0.80 0.82 0.84 0.85 0.86 0.84 0.80 0.83 0.83 0.83 0.84 0.81 0.79 0.78 0.66 0.64 0.69 0.70 0.70 0.79 0.84
0.97 1.07 1.13 1.14 1.23 1.23 1.24 1.20 1.20 1.22 1.21 1.22 1.21 1.17 1.14 1.11 1.08 1.05 1.04 1.05 1.04 1.03 1.02 0.99 0.99 0.97 0.94 0.93 0.90 0.89 0.92 0.93 0.94 0.96 0.99 1.00 0.98 0.98 0.98 0.96 0.92 0.87 0.85 0.83 0.83 0.83 0.81 0.79 0.77 0.76 0.76 0.75 0.74 0.72 0.71 0.71 0.72 0.72 0.74 0.75 0.75 0.73 0.75 0.77 0.78 0.81 0.83 0.82 0.82 0.84 0.83 0.84 0.80 0.78 0.78 0.82 0.81 0.76 0.74 0.70 0.69 0.71 0.72 0.70 0.79
1.01 1.11 1.14 1.12 1.16 1.19 1.19 1.18 1.18 1.17 1.16 1.16 1.15 1.15 1.13 1.10 1.06 1.00 0.99 0.98 0.98 0.98 0.97 0.95 0.94 0.93 0.93 0.91 0.88 0.89 0.90 0.90 0.91 0.92 0.95 0.94 0.94 0.92 0.92 0.91 0.87 0.84 0.80 0.77 0.77 0.78 0.77 0.77 0.77 0.75 0.72 0.71 0.70 0.70 0.70 0.70 0.70 0.70 0.71 0.70 0.70 0.72 0.72 0.71 0.72 0.72 0.74 0.76 0.79 0.81 0.82 0.83 0.85 0.84 0.85 0.87 0.84 0.82 0.79 0.73 0.71 0.74 0.74 0.76 0.81
1.05 1.10 1.10 1.11 1.12 1.15 1.15 1.16 1.18 1.15 1.15 1.15 1.14 1.11 1.08 1.06 1.03 0.97 0.94 0.94 0.94 0.95 0.93 0.92 0.91 0.91 0.90 0.90 0.88 0.88 0.88 0.89 0.90 0.90 0.91 0.90 0.90 0.87 0.86 0.82 0.81 0.78 0.76 0.74 0.75 0.76 0.75 0.73 0.71 0.69 0.68 0.67 0.67 0.67 0.67 0.68 0.68 0.68 0.67 0.67 0.68 0.67 0.68 0.69 0.69 0.70 0.72 0.72 0.73 0.80 0.82 0.82 0.81 0.85 0.86 0.83 0.82 0.82 0.78 0.70 0.73 0.80 0.72 0.72 0.76
1.07 1.09 1.07 1.09 1.10 1.11 1.16 1.16 1.17 1.17 1.17 1.15 1.14 1.12 1.10 1.08 1.06 1.04 1.03 1.04 1.03 1.02 1.01 0.97 0.95 0.94 0.93 0.91 0.89 0.89 0.88 0.89 0.90 0.89 0.89 0.89 0.87 0.84 0.82 0.80 0.77 0.74 0.73 0.72 0.74 0.74 0.72 0.70 0.68 0.67 0.66 0.65 0.64 0.64 0.64 0.64 0.64 0.63 0.62 0.62 0.62 0.64 0.66 0.67 0.68 0.70 0.72 0.73 0.75 0.74 0.75 0.78 0.81 0.85 0.85 0.84 0.81 0.78 0.74 0.72 0.71 0.71 0.74 0.71 0.77
1.07 1.09 1.07 1.06 1.09 1.12 1.13 1.14 1.14 1.14 1.14 1.14 1.14 1.14 1.13 1.11 1.09 1.07 1.06 1.07 1.07 1.06 1.05 1.05 1.03 1.01 0.98 0.94 0.91 0.91 0.90 0.89 0.89 0.89 0.88 0.86 0.85 0.82 0.80 0.80 0.76 0.74 0.72 0.73 0.73 0.70 0.68 0.65 0.63 0.61 0.60 0.59 0.58 0.57 0.58 0.59 0.59 0.58 0.57 0.57 0.57 0.58 0.60 0.61 0.62 0.63 0.63 0.65 0.68 0.69 0.70 0.72 0.75 0.79 0.81 0.81 0.83 0.82 0.80 0.77 0.74 0.67 0.68 0.73 0.71
1.04 1.05 1.05 1.07 1.11 1.12 1.13 1.14 1.14 1.13 1.12 1.12 1.12 1.12 1.11 1.09 1.08 1.06 1.04 1.03 1.03 1.02 1.02 1.01 0.99 0.99 0.96 0.93 0.93 0.94 0.93 0.91 0.89 0.89 0.88 0.87 0.84 0.82 0.79 0.78 0.76 0.73 0.73 0.70 0.67 0.64 0.61 0.58 0.56 0.55 0.56 0.56 0.56 0.55 0.55 0.56 0.57 0.57 0.56 0.54 0.52 0.55 0.53 0.53 0.54 0.55 0.56 0.58 0.60 0.63 0.64 0.66 0.71 0.73 0.74 0.76 0.78 0.81 0.82 0.82 0.79 0.73 0.64 0.57 0.65
0.99 1.00 1.01 1.05 1.08 1.09 1.10 1.11 1.11 1.11 1.10 1.09 1.10 1.11 1.10 1.09 1.07 1.05 1.02 1.00 0.98 0.96 0.95 0.96 0.95 0.93 0.90 0.89 0.89 0.90 0.91 0.90 0.89 0.88 0.87 0.86 0.84 0.81 0.77 0.75 0.73 0.71 0.68 0.65 0.61 0.58 0.56 0.55 0.54 0.53 0.53 0.53 0.53 0.53 0.53 0.54 0.55 0.54 0.52 0.50 0.47 0.49 0.49 0.48 0.49 0.48 0.49 0.51 0.51 0.53 0.54 0.58 0.62 0.65 0.67 0.71 0.74 0.77 0.78 0.80 0.80 0.74 0.71 0.62 0.56
0.97 1.00 1.03 1.07 1.08 1.07 1.08 1.09 1.09 1.09 1.09 1.09 1.09 1.11 1.11 1.11 1.09 1.04 1.02 0.99 0.97 0.94 0.90 0.88 0.86 0.86 0.87 0.86 0.83 0.83 0.83 0.85 0.86 0.85 0.84 0.82 0.79 0.75 0.72 0.69 0.67 0.65 0.62 0.60 0.58 0.56 0.55 0.55 0.53 0.52 0.52 0.51 0.50 0.51 0.51 0.51 0.50 0.48 0.48 0.45 0.44 0.45 0.44 0.44 0.44 0.44 0.44 0.45 0.45 0.46 0.48 0.49 0.52 0.53 0.56 0.61 0.64 0.67 0.70 0.73 0.75 0.77 0.76 0.66 0.63
0.92 0.95 1.00 1.02 1.04 1.05 1.06 1.07 1.09 1.09 1.08 1.07 1.09 1.09 1.08 1.08 1.09 1.05 1.01 0.98 0.93 0.90 0.89 0.89 0.88 0.85 0.85 0.83 0.81 0.79 0.78 0.78 0.78 0.78 0.76 0.72 0.70 0.68 0.65 0.63 0.62 0.60 0.58 0.57 0.56 0.55 0.54 0.53 0.53 0.51 0.51 0.49 0.49 0.48 0.48 0.46 0.45 0.42 0.41 0.41 0.40 0.41 0.40 0.40 0.41 0.40 0.40 0.40 0.39 0.39 0.42 0.43 0.44 0.44 0.47 0.51 0.54 0.56 0.57 0.61 0.65 0.70 0.72 0.72 0.66
0.87 0.91 0.96 0.99 1.01 1.03 1.04 1.04 1.03 1.03 1.04 1.04 1.05 1.06 1.06 1.05 1.01 1.01 0.99 0.95 0.92 0.89 0.88 0.87 0.85 0.83 0.81 0.80 0.79 0.77 0.75 0.73 0.73 0.71 0.68 0.66 0.64 0.62 0.60 0.59 0.58 0.57 0.56 0.56 0.55 0.55 0.54 0.52 0.52 0.51 0.49 0.47 0.45 0.44 0.44 0.42 0.41 0.39 0.37 0.36 0.36 0.36 0.34 0.34 0.35 0.37 0.37 0.36 0.36 0.36 0.38 0.38 0.40 0.40 0.41 0.43 0.44 0.46 0.49 0.50 0.52 0.55 0.59 0.66 0.68
0.84 0.89 0.93 0.96 0.98 1.01 1.02 1.02 1.01 1.02 1.04 1.04 1.04 1.04 1.04 1.01 0.96 0.93 0.90 0.89 0.87 0.86 0.85 0.83 0.81 0.78 0.74 0.72 0.73 0.73 0.73 0.72 0.69 0.66 0.63 0.61 0.60 0.58 0.57 0.57 0.57 0.56 0.56 0.54 0.54 0.54 0.53 0.51 0.49 0.48 0.46 0.44 0.43 0.41 0.41 0.40 0.38 0.36 0.35 0.34 0.33 0.31 0.30 0.31 0.32 0.31 0.33 0.33 0.34 0.34 0.35 0.36 0.38 0.37 0.38 0.40 0.41 0.41 0.41 0.41 0.44 0.46 0.47 0.52 0.56
0.85 0.89 0.93 0.96 0.97 0.99 1.00 1.01 1.02 1.01 1.01 1.01 1.03 1.04 1.02 0.96 0.92 0.89 0.87 0.85 0.82 0.81 0.80 0.78 0.76 0.73 0.71 0.70 0.68 0.68 0.66 0.65 0.62 0.60 0.57 0.56 0.55 0.55 0.56 0.56 0.54 0.55 0.55 0.53 0.52 0.52 0.51 0.48 0.46 0.44 0.43 0.42 0.41 0.40 0.39 0.37 0.34 0.33 0.32 0.32 0.31 0.30 0.29 0.30 0.30 0.28 0.29 0.32 0.33 0.32 0.32 0.33 0.35 0.35 0.36 0.36 0.37 0.38 0.37 0.37 0.37 0.38 0.39 0.41 0.48
0.85 0.89 0.94 0.96 0.97 0.98 0.99 0.99 0.99 0.99 0.99 1.00 1.02 1.02 0.99 0.93 0.90 0.88 0.84 0.80 0.79 0.77 0.76 0.75 0.73 0.70 0.69 0.68 0.66 0.63 0.60 0.58 0.57 0.56 0.55 0.54 0.54 0.55 0.55 0.54 0.54 0.53 0.54 0.52 0.50 0.48 0.46 0.45 0.43 0.42 0.41 0.39 0.38 0.36 0.36 0.34 0.33 0.32 0.30 0.29 0.29 0.29 0.28 0.28 0.28 0.29 0.30 0.33 0.32 0.32 0.32 0.32 0.33 0.32 0.34 0.35 0.36 0.35 0.35 0.34 0.34 0.35 0.35 0.36 0.40
0.89 0.93 0.95 0.96 0.96 0.96 0.96 0.96 0.96 0.97 0.96 0.98 1.00 1.00 0.95 0.91 0.88 0.85 0.80 0.77 0.75 0.73 0.72 0.71 0.70 0.67 0.66 0.63 0.60 0.58 0.56 0.56 0.54 0.54 0.54 0.55 0.55 0.55 0.55 0.53 0.52 0.52 0.49 0.48 0.47 0.45 0.43 0.43 0.42 0.40 0.38 0.36 0.34 0.33 0.33 0.32 0.32 0.32 0.30 0.29 0.29 0.28 0.28 0.29 0.29 0.30 0.31 0.31 0.31 0.30 0.31 0.32 0.33 0.32 0.33 0.33 0.34 0.34 0.33 0.32 0.32 0.33 0.33 0.33 0.34
0.85 0.87 0.90 0.92 0.92 0.92 0.93 0.94 0.94 0.95 0.96 0.97 0.98 0.95 0.90 0.89 0.86 0.81 0.76 0.74 0.71 0.70 0.69 0.68 0.66 0.63 0.61 0.58 0.56 0.55 0.54 0.53 0.52 0.52 0.52 0.52 0.52 0.52 0.52 0.50 0.49 0.47 0.46 0.45 0.44 0.44 0.42 0.41 0.39 0.37 0.36 0.34 0.33 0.32 0.31 0.30 0.31 0.32 0.31 0.30 0.29 0.30 0.30 0.30 0.31 0.31 0.30 0.30 0.30 0.30 0.31 0.31 0.33 0.32 0.33 0.32 0.33 0.32 0.32 0.32 0.31 0.32 0.32 0.33 0.33
0.84 0.86 0.87 0.87 0.90 0.92 0.92 0.92 0.93 0.94 0.94 0.95 0.96 0.91 0.87 0.85 0.82 0.78 0.73 0.71 0.70 0.68 0.66 0.64 0.62 0.58 0.56 0.54 0.53 0.52 0.51 0.50 0.50 0.50 0.50 0.50 0.50 0.49 0.47 0.47 0.46 0.44 0.43 0.43 0.42 0.42 0.41 0.39 0.38 0.36 0.35 0.34 0.33 0.32 0.30 0.30 0.30 0.30 0.31 0.31 0.30 0.30 0.30 0.31 0.30 0.30 0.30 0.31 0.31 0.30 0.31 0.32 0.33 0.32 0.32 0.32 0.33 0.32 0.32 0.31 0.31 0.32 0.33 0.33 0.32
0.82 0.83 0.86 0.87 0.87 0.88 0.89 0.91 0.91 0.92 0.94 0.94 0.91 0.87 0.84 0.80 0.77 0.75 0.73 0.71 0.70 0.66 0.63 0.60 0.58 0.56 0.54 0.53 0.51 0.49 0.49 0.48 0.48 0.48 0.48 0.47 0.46 0.46 0.44 0.43 0.43 0.42 0.41 0.41 0.40 0.39 0.39 0.37 0.36 0.35 0.34 0.33 0.32 0.31 0.29 0.29 0.28 0.28 0.28 0.29 0.30 0.29 0.30 0.32 0.32 0.31 0.31 0.31 0.31 0.31 0.31 0.33 0.33 0.33 0.32 0.32 0.32 0.32 0.32 0.32 0.32 0.32 0.33 0.33 0.32
0.81 0.81 0.81 0.81 0.83 0.85 0.86 0.87 0.89 0.90 0.92 0.90 0.87 0.83 0.78 0.76 0.73 0.72 0.71 0.70 0.68 0.63 0.58 0.56 0.55 0.53 0.52 0.50 0.48 0.47 0.48 0.48 0.47 0.47 0.46 0.45 0.44 0.43 0.42 0.42 0.42 0.40 0.39 0.38 0.37 0.37 0.37 0.37 0.36 0.35 0.34 0.34 0.32 0.30 0.28 0.27 0.27 0.26 0.26 0.29 0.31 0.29 0.30 0.31 0.31 0.31 0.31 0.31 0.31 0.32 0.33 0.34 0.34 0.34 0.33 0.33 0.33 0.32 0.33 0.32 0.33 0.34 0.33 0.33 0.32
0.77 0.78 0.80 0.81 0.81 0.84 0.86 0.87 0.88 0.88 0.87 0.84 0.80 0.76 0.75 0.74 0.72 0.71 0.70 0.68 0.65 0.59 0.55 0.53 0.53 0.51 0.48 0.47 0.47 0.47 0.47 0.46 0.46 0.45 0.44 0.42 0.41 0.40 0.40 0.39 0.38 0.38 0.37 0.36 0.36 0.35 0.35 0.35 0.35 0.35 0.34 0.33 0.31 0.29 0.28 0.26 0.25 0.23 0.25 0.30 0.30 0.30 0.30 0.30 0.29 0.30 0.30 0.31 0.31 0.32 0.33 0.35 0.35 0.35 0.35 0.34 0.34 0.34 0.33 0.32 0.33 0.34 0.34 0.33 0.33
0.76 0.78 0.81 0.83 0.85 0.85 0.86 0.86 0.85 0.84 0.82 0.79 0.75 0.72 0.72 0.70 0.70 0.70 0.68 0.66 0.62 0.56 0.53 0.51 0.49 0.48 0.46 0.45 0.46 0.46 0.45 0.45 0.43 0.41 0.40 0.39 0.38 0.38 0.37 0.36 0.36 0.35 0.34 0.34 0.34 0.35 0.34 0.33 0.33 0.33 0.33 0.32 0.30 0.29 0.27 0.25 0.24 0.24 0.26 0.29 0.31 0.30 0.30 0.29 0.29 0.29 0.29 0.30 0.31 0.32 0.33 0.34 0.34 0.34 0.34 0.34 0.33 0.33 0.34 0.35 0.35 0.35 0.34 0.33 0.33
0.76 0.79 0.81 0.83 0.84 0.84 0.83 0.82 0.81 0.81 0.78 0.75 0.72 0.71 0.71 0.70 0.69 0.67 0.65 0.63 0.59 0.54 0.51 0.49 0.47 0.46 0.45 0.45 0.45 0.44 0.43 0.40 0.39 0.38 0.37 0.36 0.36 0.36 0.35 0.34 0.34 0.34 0.33 0.33 0.33 0.33 0.33 0.33 0.33 0.32 0.31 0.31 0.30 0.28 0.25 0.24 0.23 0.25 0.27 0.29 0.29 0.27 0.29 0.29 0.29 0.28 0.28 0.29 0.30 0.32 0.32 0.33 0.33 0.34 0.34 0.34 0.33 0.33 0.33 0.34 0.36 0.37 0.39 0.38 0.35
0.73 0.77 0.79 0.80 0.81 0.80 0.80 0.79 0.79 0.78 0.75 0.72 0.70 0.70 0.68 0.66 0.65 0.63 0.61 0.60 0.56 0.52 0.50 0.47 0.46 0.45 0.44 0.44 0.43 0.41 0.39 0.37 0.36 0.35 0.35 0.35 0.35 0.34 0.33 0.33 0.33 0.32 0.33 0.33 0.32 0.32 0.32 0.33 0.32 0.32 0.31 0.30 0.28 0.26 0.24 0.23 0.24 0.25 0.26 0.29 0.29 0.28 0.29 0.29 0.29 0.29 0.30 0.30 0.30 0.31 0.32 0.33 0.34 0.34 0.35 0.34 0.33 0.33 0.34 0.34 0.36 0.38 0.39 0.40 0.42
0.73 0.75 0.77 0.79 0.80 0.80 0.79 0.78 0.77 0.74 0.72 0.71 0.71 0.68 0.65 0.63 0.61 0.59 0.58 0.56 0.53 0.50 0.47 0.46 0.45 0.44 0.44 0.42 0.40 0.37 0.35 0.34 0.34 0.34 0.34 0.33 0.32 0.32 0.31 0.31 0.30 0.31 0.31 0.30 0.30 0.30 0.30 0.31 0.31 0.30 0.29 0.28 0.27 0.25 0.23 0.23 0.24 0.25 0.26 0.28 0.29 0.28 0.29 0.28 0.29 0.30 0.31 0.31 0.31 0.31 0.32 0.33 0.34 0.34 0.35 0.35 0.34 0.34 0.35 0.36 0.37 0.39 0.41 0.43 0.42
0.75 0.77 0.78 0.80 0.80 0.79 0.79 0.78 0.76 0.73 0.72 0.72 0.71 0.67 0.64 0.61 0.58 0.55 0.54 0.52 0.48 0.47 0.46 0.45 0.44 0.43 0.41 0.39 0.36 0.34 0.33 0.33 0.33 0.33 0.32 0.31 0.31 0.30 0.30 0.31 0.30 0.30 0.29 0.29 0.29 0.28 0.29 0.30 0.30 0.30 0.29 0.27 0.25 0.24 0.23 0.23 0.24 0.26 0.27 0.28 0.28 0.29 0.29 0.29 0.29 0.30 0.31 0.31 0.32 0.32 0.32 0.32 0.33 0.35 0.36 0.35 0.35 0.35 0.35 0.37 0.38 0.39 0.40 0.42 0.43
0.73 0.75 0.77 0.78 0.78 0.79 0.79 0.76 0.74 0.72 0.72 0.71 0.69 0.66 0.61 0.57 0.54 0.52 0.50 0.47 0.45 0.44 0.44 0.42 0.41 0.40 0.38 0.36 0.34 0.34 0.33 0.32 0.32 0.32 0.31 0.30 0.30 0.29 0.29 0.28 0.27 0.27 0.26 0.26 0.26 0.26 0.27 0.28 0.29 0.29 0.29 0.27 0.24 0.24 0.23 0.23 0.24 0.26 0.27 0.29 0.29 0.29 0.29 0.29 0.30 0.31 0.31 0.32 0.33 0.33 0.32 0.32 0.33 0.34 0.36 0.35 0.35 0.36 0.37 0.38 0.39 0.40 0.41 0.43 0.44
0.75 0.76 0.77 0.77 0.78 0.78 0.78 0.75 0.76 0.73 0.71 0.70 0.66 0.62 0.57 0.54 0.52 0.48 0.46 0.45 0.44 0.42 0.41 0.40 0.39 0.38 0.36 0.35 0.34 0.33 0.33 0.32 0.32 0.31 0.29 0.28 0.28 0.28 0.27 0.27 0.27 0.27 0.27 0.26 0.26 0.26 0.26 0.27 0.27 0.28 0.28 0.27 0.25 0.24 0.24 0.24 0.24 0.26 0.28 0.29 0.28 0.28 0.28 0.28 0.29 0.30 0.31 0.32 0.33 0.33 0.32 0.32 0.33 0.34 0.35 0.36 0.37 0.38 0.38 0.38 0.39 0.40 0.42 0.43 0.45
0.79 0.79 0.80 0.81 0.82 0.81 0.79 0.77 0.74 0.71 0.69 0.67 0.64 0.59 0.55 0.51 0.48 0.47 0.45 0.43 0.42 0.40 0.39 0.38 0.37 0.36 0.36 0.35 0.35 0.34 0.33 0.32 0.31 0.30 0.28 0.28 0.27 0.27 0.27 0.27 0.25 0.25 0.25 0.25 0.25 0.25 0.26 0.26 0.25 0.26 0.28 0.28 0.26 0.24 0.24 0.24 0.23 0.24 0.28 0.28 0.27 0.27 0.28 0.28 0.29 0.30 0.31 0.32 0.33 0.33 0.32 0.32 0.33 0.34 0.35 0.36 0.38 0.39 0.40 0.40 0.40 0.41 0.43 0.44 0.44
0.79 0.81 0.81 0.81 0.82 0.81 0.79 0.74 0.71 0.69 0.68 0.66 0.61 0.57 0.53 0.49 0.47 0.46 0.44 0.42 0.40 0.39 0.38 0.38 0.37 0.36 0.35 0.35 0.35 0.35 0.33 0.32 0.30 0.29 0.28 0.27 0.27 0.27 0.27 0.27 0.25 0.24 0.24 0.25 0.26 0.25 0.26 0.26 0.26 0.25 0.27 0.28 0.27 0.25 0.25 0.25 0.24 0.24 0.27 0.29 0.26 0.26 0.27 0.28 0.29 0.30 0.30 0.31 0.32 0.33 0.33 0.32 0.32 0.34 0.35 0.37 0.39 0.40 0.41 0.42 0.42 0.41 0.42 0.43 0.44
0.78 0.79 0.78 0.79 0.79 0.78 0.74 0.72 0.69 0.66 0.66 0.63 0.59 0.55 0.51 0.48 0.47 0.45 0.43 0.41 0.40 0.39 0.38 0.37 0.36 0.37 0.36 0.36 0.36 0.35 0.33 0.31 0.29 0.29 0.28 0.27 0.27 0.26 0.27 0.28 0.26 0.25 0.24 0.24 0.25 0.25 0.25 0.27 0.28 0.27 0.25 0.27 0.28 0.27 0.25 0.25 0.25 0.25 0.26 0.29 0.27 0.26 0.27 0.29 0.29 0.29 0.30 0.30 0.31 0.33 0.33 0.31 0.32 0.34 0.35 0.37 0.39 0.41 0.42 0.44 0.44 0.43 0.43 0.44 0.46
0.79 0.81 0.80 0.80 0.78 0.74 0.70 0.67 0.66 0.66 0.65 0.61 0.57 0.53 0.50 0.48 0.46 0.44 0.42 0.40 0.40 0.39 0.39 0.39 0.37 0.37 0.36 0.36 0.36 0.35 0.33 0.32 0.30 0.29 0.29 0.28 0.27 0.27 0.27 0.26 0.26 0.25 0.24 0.25 0.25 0.24 0.24 0.25 0.27 0.28 0.27 0.26 0.26 0.28 0.26 0.25 0.26 0.26 0.26 0.28 0.27 0.26 0.26 0.29 0.30 0.29 0.28 0.30 0.31 0.32 0.33 0.31 0.33 0.34 0.36 0.38 0.39 0.41 0.43 0.46 0.46 0.45 0.44 0.44 0.49
0.76 0.77 0.78 0.76 0.74 0.71 0.68 0.67 0.68 0.67 0.64 0.60 0.55 0.52 0.49 0.47 0.46 0.43 0.42 0.41 0.41 0.41 0.40 0.39 0.38 0.36 0.35 0.35 0.35 0.35 0.33 0.32 0.31 0.30 0.29 0.28 0.28 0.27 0.27 0.26 0.25 0.25 0.25 0.25 0.26 0.26 0.25 0.25 0.26 0.26 0.27 0.27 0.25 0.25 0.26 0.26 0.26 0.27 0.27 0.26 0.28 0.27 0.27 0.31 0.30 0.28 0.29 0.29 0.30 0.31 0.33 0.32 0.33 0.35 0.37 0.38 0.40 0.41 0.44 0.47 0.48 0.48 0.49 0.51 0.53
0.80 0.79 0.77 0.74 0.71 0.69 0.68 0.67 0.68 0.67 0.63 0.58 0.55 0.51 0.49 0.47 0.44 0.42 0.42 0.43 0.42 0.41 0.40 0.39 0.38 0.37 0.36 0.35 0.34 0.34 0.34 0.33 0.32 0.31 0.29 0.27 0.28 0.28 0.27 0.27 0.27 0.26 0.26 0.25 0.26 0.26 0.26 0.26 0.26 0.27 0.26 0.27 0.28 0.26 0.25 0.26 0.26 0.26 0.27 0.27 0.27 0.28 0.28 0.32 0.31 0.28 0.28 0.29 0.30 0.31 0.32 0.33 0.35 0.36 0.38 0.39 0.40 0.41 0.44 0.47 0.49 0.51 0.53 0.54 0.54
0.73 0.74 0.74 0.71 0.68 0.67 0.67 0.67 0.67 0.66 0.61 0.57 0.54 0.50 0.48 0.45 0.43 0.43 0.43 0.43 0.43 0.42 0.40 0.39 0.38 0.36 0.36 0.35 0.34 0.34 0.33 0.33 0.32 0.31 0.29 0.28 0.28 0.27 0.27 0.28 0.28 0.27 0.26 0.25 0.25 0.26 0.26 0.25 0.25 0.26 0.26 0.27 0.29 0.30 0.26 0.24 0.26 0.26 0.27 0.28 0.27 0.28 0.28 0.31 0.32 0.28 0.28 0.29 0.31 0.32 0.34 0.34 0.35 0.36 0.38 0.39 0.40 0.40 0.43 0.46 0.49 0.51 0.52 0.54 0.55
0.76 0.75 0.72 0.70 0.67 0.67 0.67 0.67 0.67 0.65 0.60 0.56 0.53 0.49 0.47 0.44 0.44 0.45 0.44 0.43 0.42 0.42 0.40 0.39 0.37 0.36 0.36 0.34 0.34 0.34 0.33 0.32 0.31 0.31 0.30 0.29 0.28 0.28 0.27 0.27 0.27 0.26 0.25 0.24 0.24 0.25 0.25 0.24 0.23 0.24 0.26 0.27 0.28 0.29 0.29 0.26 0.26 0.26 0.27 0.27 0.27 0.28 0.29 0.29 0.32 0.29 0.29 0.31 0.31 0.33 0.34 0.35 0.35 0.35 0.37 0.38 0.39 0.39 0.42 0.45 0.48 0.50 0.52 0.53 0.54
0.73 0.72 0.72 0.70 0.66 0.66 0.66 0.65 0.66 0.63 0.59 0.55 0.53 0.48 0.45 0.44 0.45 0.45 0.43 0.42 0.42 0.41 0.40 0.38 0.37 0.36 0.35 0.34 0.34 0.33 0.32 0.31 0.30 0.31 0.29 0.28 0.28 0.30 0.27 0.27 0.28 0.26 0.25 0.24 0.23 0.24 0.24 0.24 0.24 0.24 0.26 0.26 0.27 0.27 0.26 0.27 0.26 0.26 0.27 0.27 0.27 0.28 0.27 0.29 0.29 0.29 0.30 0.31 0.32 0.33 0.33 0.34 0.34 0.34 0.36 0.37 0.39 0.39 0.40 0.44 0.46 0.48 0.51 0.51 0.51
0.74 0.73 0.71 0.68 0.68 0.67 0.66 0.65 0.64 0.62 0.58 0.55 0.52 0.49 0.44 0.47 0.47 0.45 0.44 0.43 0.41 0.40 0.38 0.38 0.36 0.35 0.34 0.33 0.33 0.32 0.32 0.31 0.31 0.31 0.31 0.30 0.28 0.28 0.27 0.27 0.28 0.27 0.26 0.24 0.23 0.24 0.23 0.24 0.24 0.25 0.26 0.27 0.27 0.26 0.25 0.25 0.26 0.26 0.27 0.27 0.27 0.27 0.26 0.27 0.29 0.29 0.29 0.32 0.32 0.32 0.33 0.33 0.34 0.33 0.33 0.35 0.37 0.39 0.39 0.41 0.44 0.46 0.49 0.49 0.48
0.72 0.73 0.71 0.68 0.67 0.66 0.65 0.65 0.63 0.62 0.58 0.54 0.51 0.49 0.47 0.49 0.46 0.45 0.44 0.43 0.41 0.39 0.38 0.38 0.36 0.35 0.35 0.33 0.32 0.32 0.31 0.30 0.31 0.31 0.30 0.29 0.28 0.28 0.28 0.28 0.28 0.28 0.27 0.25 0.25 0.24 0.24 0.24 0.25 0.25 0.26 0.27 0.27 0.25 0.24 0.24 0.25 0.25 0.25 0.26 0.26 0.25 0.25 0.27 0.27 0.28 0.29 0.32 0.32 0.32 0.33 0.33 0.33 0.32 0.32 0.35 0.36 0.38 0.39 0.39 0.42 0.45 0.46 0.47 0.47
0.76 0.74 0.71 0.69 0.68 0.66 0.65 0.65 0.63 0.61 0.58 0.54 0.51 0.48 0.50 0.49 0.45 0.44 0.43 0.42 0.41 0.40 0.38 0.38 0.36 0.36 0.34 0.34 0.33 0.31 0.31 0.30 0.30 0.30 0.29 0.28 0.28 0.28 0.29 0.27 0.27 0.27 0.27 0.27 0.26 0.26 0.25 0.25 0.26 0.25 0.26 0.26 0.25 0.25 0.23 0.23 0.24 0.24 0.24 0.24 0.24 0.23 0.24 0.26 0.25 0.27 0.29 0.33 0.32 0.32 0.32 0.32 0.32 0.31 0.30 0.32 0.34 0.35 0.38 0.39 0.40 0.41 0.42 0.44 0.46
0.73 0.72 0.70 0.68 0.67 0.67 0.67 0.66 0.63 0.60 0.57 0.53 0.51 0.49 0.50 0.46 0.42 0.42 0.43 0.42 0.41 0.39 0.39 0.38 0.37 0.36 0.34 0.33 0.33 0.27 0.32 0.32 0.30 0.30 0.31 0.32 0.30 0.30 0.30 0.29 0.28 0.30 0.27 0.27 0.27 0.28 0.27 0.28 0.29 0.27 0.24 0.25 0.25 0.24 0.24 0.26 0.25 0.25 0.25 0.24 0.23 0.23 0.24 0.25 0.26 0.28 0.28 0.30 0.30 0.29 0.29 0.29 0.28 0.28 0.28 0.29 0.30 0.31 0.34 0.37 0.39 0.39 0.39 0.42 0.44
0.74 0.72 0.70 0.69 0.69 0.68 0.68 0.66 0.62 0.58 0.56 0.53 0.51 0.48 0.48 0.43 0.43 0.44 0.45 0.42 0.40 0.38 0.38 0.37 0.36 0.36 0.35 0.31 0.33 0.31 0.31 0.32 0.30 0.29 0.28 0.26 0.25 0.27 0.30 0.33 0.32 0.26 0.28 0.27 0.26 0.26 0.26 0.27 0.29 0.31 0.28 0.24 0.24 0.25 0.26 0.26 0.25 0.25 0.25 0.25 0.24 0.24 0.25 0.26 0.27 0.27 0.29 0.26 0.26 0.26 0.27 0.28 0.27 0.27 0.27 0.27 0.28 0.29 0.31 0.34 0.37 0.37 0.37 0.39 0.41
0.73 0.71 0.69 0.69 0.70 0.70 0.70 0.66 0.63 0.59 0.56 0.52 0.49 0.47 0.45 0.45 0.45 0.44 0.42 0.40 0.39 0.37 0.36 0.36 0.35 0.35 0.34 0.31 0.32 0.32 0.31 0.31 0.31 0.30 0.30 0.29 0.27 0.24 0.28 0.27 0.28 0.29 0.28 0.29 0.29 0.28 0.29 0.29 0.28 0.28 0.29 0.30 0.28 0.28 0.27 0.27 0.26 0.25 0.25 0.24 0.24 0.25 0.25 0.26 0.27 0.26 0.26 0.24 0.23 0.24 0.25 0.27 0.27 0.27 0.27 0.27 0.27 0.27 0.29 0.31 0.34 0.36 0.36 0.37 0.40
Wind_Speed
10 9 9 10 11 11 12 12 12 12 11 10 10 8 8 8 8 8 8 8 7 7 7 7 7 6 6 6 5 5 5 5 5 5 5 5 6 6 6 7 7 8 9 10 10 11 12 13 13 13 14 14 14 14 15 15 15 15 16 16 16 17 17 17 17 18 18 18 18 18 19 19 19 18 18 19 19 18 18 18 18 18 19 19 19
11 10 10 10 10 11 11 11 11 10 10 10 9 8 7 7 7 7 7 7 7 7 7 7 7 6 6 6 5 5 5 5 5 5 5 5 6 6 7 7 8 9 9 10 11 12 12 13 13 14 14 14 15 15 15 15 15 15 16 16 17 17 17 17 17 18 18 18 19 19 19 19 18 19 19 19 18 18 19 19 19 20 20 20 20
12 11 11 10 9 9 10 10 9 8 9 9 8 7 7 7 7 7 7 7 7 7 7 7 7 7 6 6 6 5 5 5 5 5 5 6 6 7 8 8 9 10 10 11 12 12 13 13 14 14 14 15 15 16 16 16 16 16 17 17 17 18 18 18 18 18 18 19 20 19 19 19 19 18 18 18 19 20 20 20 20 21 21 21 21
14 13 12 10 10 9 8 8 7 7 8 8 8 7 7 7 7 7 7 8 8 8 8 8 7 7 6 6 6 6 6 5 5 6 6 6 7 8 9 9 10 10 11 12 12 13 13 13 14 14 15 15 16 16 16 17 17 17 18 18 18 19 19 19 19 19 19 20 20 20 20 20 19 19 19 21 21 21 20 21 21 22 22 22 22
15 14 13 12 11 10 8 8 8 7 7 7 7 7 7 7 7 7 7 8 8 8 8 8 8 7 7 7 7 7 7 7 7 7 7 8 8 9 9 10 10 10 11 12 12 13 14 14 14 14 15 16 16 16 17 17 18 18 19 19 19 20 20 20 20 20 20 20 20 20 20 20 20 21 22 22 21 21 22 23 23 23 22 22 22
14 14 13 12 11 9 9 9 8 7 7 7 8 7 7 7 7 7 7 8 8 8 9 9 9 9 8 8 8 9 8 8 8 8 9 9 10 10 10 10 10 11 12 12 13 14 14 15 15 15 15 16 16 17 17 18 19 19 20 20 20 21 21 21 21 21 21 21 21 21 21 21 22 23 24 23 22 23 23 23 24 23 24 24 24
13 13 13 13 12 10 9 8 7 7 7 8 7 7 7 7 7 7 8 8 8 9 9 10 10 10 10 10 10 10 10 10 10 10 10 11 11 11 11 11 12 12 13 14 14 14 15 15 16 16 16 17 18 18 19 19 20 20 21 21 22 22 22 22 22 22 22 22 22 23 23 23 24 24 24 24 24 24 24 24 24 25 25 25 25
13 13 13 14 13 11 10 9 8 8 8 7 7 7 7 7 7 7 8 8 9 9 10 10 10 10 10 10 10 11 11 11 11 11 12 12 12 12 12 12 13 14 14 15 15 15 16 16 17 17 18 18 19 19 20 20 20 21 21 22 22 22 23 23 24 24 23 23 23 24 24 24 25 25 26 26 25 25 25 25 25 25 26 26 26
15 15 14 14 13 11 10 10 9 8 8 7 7 7 6 7 7 7 8 8 9 9 9 10 10 10 11 11 11 11 11 12 12 13 13 13 13 14 13 13 14 15 15 15 15 16 16 17 17 18 18 18 19 19 20 20 21 21 21 21 22 22 23 23 24 24 25 25 25 25 26 26 26 26 26 26 26 26 26 25 25 26 26 26 26
16 16 15 14 13 11 11 10 9 7 7 7 7 7 7 7 7 8 8 8 8 9 9 9 10 10 11 11 11 12 12 13 13 14 14 15 15 14 14 15 15 15 15 16 16 16 17 17 17 18 18 18 19 19 20 20 21 21 21 21 22 22 23 24 24 25 25 26 26 27 27 27 27 27 27 27 27 27 27 27 27 27 27 27 27
16 15 16 15 13 12 11 10 9 8 7 7 7 8 8 7 7 7 8 8 9 9 9 10 10 11 11 12 12 13 13 14 14 15 15 15 15 15 15 15 15 15 16 16 16 17 17 17 17 18 18 18 19 20 20 21 21 21 22 22 22 23 23 24 25 25 26 26 27 27 28 28 28 28 28 28 29 28 29 29 28 28 29 29 28
17 15 16 16 13 12 11 10 9 8 8 8 8 7 7 7 7 7 8 9 9 10 10 11 11 12 12 13 13 14 14 15 15 15 15 15 15 15 15 15 15 15 16 17 17 17 17 18 18 18 19 19 20 20 21 21 22 22 22 22 23 23 24 25 25 26 26 27 27 27 28 28 29 29 29 30 30 30 30 30 30 30 30 30 29
17 16 16 15 14 13 12 11 10 9 9 8 8 7 7 7 7 8 8 9 10 11 11 12 12 13 13 14 14 14 14 14 14 15 15 15 15 15 15 15 15 16 16 17 17 18 18 18 19 19 20 20 21 21 22 22 22 22 23 23 24 24 25 25 26 26 27 28 28 28 28 29 29 29 30 30 31 31 31 31 31 31 31 31 30
17 16 16 15 14 13 12 11 10 9 9 8 8 8 8 8 8 8 9 10 11 12 12 12 13 14 15 15 15 15 15 14 14 15 15 15 15 16 16 16 16 16 16 17 18 18 18 19 19 20 20 21 21 22 22 22 23 23 24 24 25 25 25 26 26 27 27 28 28 28 29 29 29 30 30 30 31 31 32 32 32 32 32 32 31
17 16 16 16 15 14 13 11 10 10 9 9 8 8 8 8 9 9 9 10 11 12 12 13 13 14 15 15 15 15 15 15 15 15 15 16 16 16 16 16 16 16 17 17 18 18 19 19 20 20 21 21 22 22 23 23 24 24 24 25 26 26 26 27 27 27 27 28 28 28 29 29 29 30 30 30 31 31 32 32 32 33 33 32 31
18 17 16 17 16 15 13 12 11 10 10 9 9 9 9 9 9 9 9 9 10 10 11 13 13 14 15 15 15 15 15 15 15 15 15 16 16 16 16 16 16 17 17 17 18 18 19 19 20 20 21 22 23 23 24 24 25 25 25 26 26 27 27 27 27 27 27 28 28 28 29 29 29 30 30 31 31 31 32 32 32 32 32 32 31
19 18 17 17 17 16 14 13 11 11 10 10 9 8 9 9 9 9 9 9 9 10 10 11 12 13 13 14 14 14 14 15 15 15 16 16 16 16 16 16 16 17 17 18 18 18 19 20 20 21 22 23 23 24 25 25 26 26 26 27 27 27 27 27 27 27 27 28 28 28 28 29 29 30 30 31 31 31 32 32 32 32 32 32 31
19 18 17 17 17 16 15 13 12 11 11 10 9 9 9 9 9 9 9 9 10 10 10 11 11 12 12 12 13 14 14 14 15 15 16 16 16 16 16 16 16 17 17 17 18 18 19 20 21 21 22 23 24 25 25 26 26 26 26 27 27 27 27 27 27 27 28 28 28 29 29 29 29 30 30 30 31 31 32 32 32 32 32 32 32
19 19 18 18 18 17 15 14 13 12 11 10 10 10 9 9 9 9 9 9 10 10 10 11 11 11 12 12 13 14 14 14 14 15 15 15 15 15 15 15 16 16 17 17 18 18 19 20 21 22 23 24 25 25 26 26 26 26 27 27 28 28 28 28 28 28 28 28 29 29 29 29 30 30 30 30 30 31 31 32 32 32 32 33 33
20 19 18 18 17 16 15 14 14 13 12 11 11 10 9 9 9 9 9 10 10 10 10 11 11 12 12 12 13 13 13 14 13 14 14 14 14 14 15 15 15 16 16 17 18 19 20 20 21 22 23 24 25 25 26 26 26 26 27 27 27 28 28 27 28 28 28 28 28 29 29 29 30 30 30 30 31 31 31 31 32 32 32 33 34
20 19 18 18 17 16 15 15 14 14 13 12 12 11 10 10 10 10 10 10 11 11 11 11 12 11 11 11 12 12 12 13 13 13 13 13 14 14 14 15 15 16 16 17 18 19 20 21 22 23 24 24 25 25 26 26 26 26 26 27 27 28 28 28 28 28 28 28 29 29 29 30 30 30 31 31 31 31 32 32 32 32 32 33 34
21 20 19 19 18 17 16 15 15 14 14 13 13 11 10 11 11 11 11 11 11 11 11 11 11 11 11 11 11 11 12 12 12 12 13 13 13 13 14 15 15 16 17 17 18 19 20 21 22 23 23 24 24 25 25 25 26 26 27 27 27 28 28 28 28 28 29 29 29 29 30 30 30 31 31 31 32 32 33 33 33 33 33 33 34
22 21 20 19 18 17 17 16 15 15 14 14 13 12 11 11 11 11 11 11 12 11 11 11 11 11 11 11 11 11 11 11 12 12 12 12 13 13 14 15 15 16 17 18 18 19 20 21 22 22 23 23 24 24 25 25 26 26 27 27 28 28 28 28 29 29 29 29 30 30 31 31 31 32 32 32 33 33 34 34 34 34 34 35 35
22 21 20 20 19 18 17 17 16 15 15 15 14 12 12 12 12 12 12 12 11 11 11 11 11 11 11 11 11 11 11 11 11 12 12 12 13 14 14 15 15 16 17 18 18 19 20 20 21 21 22 23 23 24 25 25 26 26 27 27 28 28 29 29 29 30 30 30 31 31 31 32 32 33 33 34 34 35 35 35 36 35 36 36 36
21 21 21 20 20 19 18 17 17 16 16 16 14 13 13 13 13 13 12 12 12 11 11 11 11 11 10 10 10 10 11 11 11 12 12 13 13 14 14 15 15 16 17 17 18 19 19 20 20 21 22 23 23 24 25 25 26 27 27 28 29 29 29 29 30 30 31 31 31 32 32 33 33 33 34 35 35 36 36 36 37 37 37 37 37
22 21 21 21 20 19 19 18 18 18 17 16 14 14 14 13 13 13 12 12 12 12 11 11 11 10 10 10 10 10 11 11 11 12 12 13 13 14 14 14 15 16 16 17 17 18 19 19 20 21 21 22 23 24 25 26 27 28 28 29 29 29 30 30 30 30 31 31 32 32 33 33 34 34 35 35 36 36 36 37 37 38 38 38 38
21 21 21 21 21 20 20 19 19 18 17 15 14 14 14 14 13 13 12 12 12 12 11 11 10 10 9 10 10 10 11 11 12 12 12 13 13 13 14 14 15 15 16 16 17 18 18 19 20 20 21 22 23 25 26 27 28 28 29 29 29 30 30 30 30 30 31 31 32 33 33 33 34 34 35 36 37 37 37 38 38 38 38 39 39
21 21 20 20 20 19 19 19 19 18 16 15 14 14 14 13 13 13 13 12 12 12 11 10 10 10 10 10 10 11 11 11 12 12 12 12 12 13 13 13 14 14 15 16 17 17 18 19 19 20 21 22 24 25 26 27 28 29 29 29 29 30 30 30 30 31 31 32 32 33 33 33 34 35 36 37 37 38 39 39 39 39 39 40 39
20 20 20 20 19 19 19 19 18 17 16 15 14 14 14 13 13 13 13 12 12 11 11 10 10 10 10 10 10 11 11 11 11 11 11 12 12 12 12 12 13 14 15 16 16 17 18 18 19 20 21 23 24 26 27 28 29 30 30 29 29 30 30 30 31 31 31 32 33 33 33 34 35 36 37 37 38 40 41 41 41 41 41 41 41
21 21 21 20 20 20 20 19 18 17 16 15 15 14 14 14 13 13 13 12 12 11 11 10 10 10 10 10 10 10 10 10 10 10 10 10 11 11 11 12 13 14 15 15 16 17 18 18 19 20 22 23 25 26 28 29 30 30 30 29 29 30 30 31 31 31 32 32 33 33 34 35 36 36 37 38 39 41 42 42 43 43 42 42 42
22 22 22 21 21 21 21 19 18 17 16 15 15 14 14 13 13 13 12 12 12 11 10 10 10 9 9 9 9 9 9 9 9 9 9 9 10 10 11 12 13 14 15 15 16 17 18 19 20 21 22 24 25 27 29 30 30 30 30 29 29 30 30 31 31 32 32 33 33 33 34 35 35 37 37 38 40 42 42 43 43 43 43 43 43
23 23 23 22 22 21 20 18 17 17 16 16 15 15 14 13 13 12 12 12 11 11 10 10 9 9 9 9 9 8 8 8 8 8 8 9 10 10 11 12 13 14 14 15 16 17 18 19 20 21 23 24 25 27 29 30 30 30 30 29 29 30 30 31 32 32 32 33 33 33 34 34 35 37 38 39 41 43 43 43 43 43 43 42 42
23 23 23 23 22 21 19 18 17 17 16 16 15 15 14 13 12 12 12 11 11 10 10 10 9 9 8 8 8 7 7 7 7 8 8 9 10 10 11 12 13 14 14 15 17 18 19 20 20 21 22 24 25 27 29 30 30 30 31 30 29 30 30 31 32 32 32 32 33 33 34 34 36 37 38 40 42 43 43 43 43 42 42 42 42
23 23 23 23 22 20 19 18 17 17 17 16 15 14 14 13 12 12 11 11 11 10 10 9 9 8 8 7 7 7 7 7 7 8 8 9 10 11 11 12 13 14 15 16 17 18 19 20 20 21 22 23 25 27 29 30 30 30 30 30 29 30 30 31 31 32 32 32 33 34 35 36 37 38 39 41 43 43 43 42 42 41 41 41 42
23 23 23 22 21 20 19 18 18 17 17 16 15 14 13 13 12 12 11 11 10 10 9 9 8 8 7 7 6 6 6 6 7 8 9 9 10 11 11 12 13 14 15 16 18 18 19 20 20 21 22 23 25 27 28 29 30 30 30 29 29 29 30 30 31 31 32 32 33 34 35 37 38 38 40 42 43 43 43 42 41 41 41 40 40
24 24 23 22 21 20 19 18 18 18 17 16 15 14 14 13 12 12 11 11 10 10 9 9 8 7 7 7 6 6 6 7 8 8 9 9 10 11 12 13 14 15 16 17 18 18 19 20 20 21 22 23 25 27 28 29 30 30 29 28 28 29 29 30 31 31 32 32 33 34 36 38 38 39 41 43 43 43 42 41 40 40 39 39 38
24 23 22 21 21 20 19 19 18 18 17 16 15 15 14 13 12 12 11 11 10 10 9 9 8 8 7 7 7 6 7 7 8 8 9 9 10 11 12 13 14 15 16 17 17 18 19 19 20 21 22 23 24 26 28 29 30 30 28 28 28 29 29 30 31 31 32 33 34 35 37 38 38 40 42 43 43 43 41 40 39 39 38 36 35
23 22 21 21 21 20 20 19 19 18 17 17 16 15 14 13 12 12 11 11 10 10 9 9 8 8 7 7 7 7 7 7 8 8 9 10 11 12 13 14 14 15 16 17 17 18 18 19 20 21 22 23 24 26 27 28 29 30 28 27 28 29 29 30 31 31 32 33 34 35 37 38 39 40 42 43 43 42 41 39 38 37 36 34 33
22 22 22 22 21 21 20 20 19 19 18 17 16 15 14 13 13 12 12 11 11 10 10 9 8 8 8 8 7 7 7 7 7 8 9 10 11 12 13 14 14 15 16 16 17 18 18 19 20 21 22 23 23 25 27 28 28 29 29 27 28 29 30 30 31 32 32 33 34 35 37 38 40 41 42 42 42 42 40 38 36 35 33 32 31
22 23 22 22 22 21 21 21 20 19 19 18 17 16 15 14 13 13 12 12 11 10 10 9 8 8 8 8 8 7 7 7 8 8 9 10 11 12 13 14 14 15 15 16 17 18 18 19 20 21 21 22 23 24 26 27 28 28 29 28 28 29 30 30 31 32 33 34 35 36 37 38 40 40 41 41 41 40 38 36 34 33 32 30 29
23 23 23 22 21 22 22 21 21 20 19 18 17 16 15 15 14 13 13 12 12 11 10 9 9 8 8 8 8 7 7 7 8 9 10 11 12 12 13 13 14 15 15 16 17 17 18 19 19 20 21 22 23 24 25 26 27 28 29 29 29 29 30 30 31 32 33 34 35 36 36 38 40 40 40 40 39 38 36 34 33 32 30 29 27
24 23 23 22 21 22 22 21 21 21 20 18 18 17 16 15 15 14 13 13 12 11 10 10 9 9 8 8 8 7 7 8 8 9 10 11 12 12 13 13 14 14 15 16 17 17 17 18 19 20 21 21 22 23 25 26 27 27 28 29 29 30 31 30 31 32 33 34 35 35 36 39 40 40 40 39 37 36 34 32 32 31 29 28 25
24 24 23 22 21 22 22 22 22 21 20 19 18 18 17 16 16 15 14 13 13 12 11 10 10 9 9 8 8 7 7 8 9 10 10 11 11 12 13 13 14 15 15 16 16 17 17 17 18 19 20 21 22 23 24 26 27 27 28 29 29 30 31 30 30 32 33 34 35 35 36 39 40 39 38 37 35 34 33 32 31 31 29 28 25
24 24 23 23 22 22 23 23 22 21 20 20 19 18 18 17 16 16 15 14 13 12 11 11 10 9 9 8 8 7 8 8 9 10 10 11 11 12 13 13 14 15 15 16 16 16 16 17 18 19 20 21 22 23 24 26 27 27 28 29 29 30 31 30 30 31 32 33 34 35 37 38 39 38 37 35 34 33 32 31 31 30 29 27 25
25 24 24 23 23 23 23 23 22 21 21 20 20 19 19 18 17 16 15 14 14 13 12 11 10 10 9 9 8 8 8 9 9 10 11 11 11 12 13 13 14 14 15 15 15 16 16 17 17 18 19 20 21 22 24 25 27 27 28 29 29 30 30 31 30 31 32 32 34 35 36 37 37 38 37 34 33 32 31 31 31 30 28 27 26
25 25 24 23 23 23 23 23 22 21 21 20 20 20 19 18 17 17 16 15 14 13 12 11 11 10 9 8 8 8 9 9 10 10 10 11 11 12 12 13 14 14 14 14 15 15 15 16 17 18 19 19 20 22 24 25 26 27 28 29 29 30 30 31 30 30 31 32 33 34 36 36 37 37 36 34 32 31 30 30 31 30 28 27 27
26 25 24 24 23 23 23 23 22 22 21 21 21 20 20 19 18 18 16 15 14 14 13 12 11 10 9 9 9 9 9 9 10 10 10 10 11 12 12 13 13 13 14 14 14 15 15 16 17 18 18 19 20 21 23 24 25 26 27 28 29 29 30 30 30 30 31 32 33 34 35 36 36 37 36 34 32 31 29 30 31 30 28 28 28
26 26 25 24 24 24 24 23 23 22 21 21 21 21 20 19 19 18 16 16 15 14 13 12 11 10 9 9 9 9 10 10 10 10 10 10 11 11 12 12 12 13 13 13 14 14 15 16 16 17 18 19 20 21 22 23 24 25 26 27 28 29 30 30 30 30 30 31 33 34 34 35 35 36 36 34 32 31 29 29 29 30 29 29 28
27 26 26 25 25 25 24 24 22 21 21 21 21 21 20 20 19 18 17 16 15 14 13 12 11 11 10 10 10 10 10 10 9 9 10 10 10 11 11 11 11 12 12 13 13 13 14 15 16 17 18 19 19 20 22 23 24 25 26 27 28 29 30 30 30 30 30 31 32 33 34 35 35 36 36 34 33 31 29 28 28 29 30 30 29
27 26 26 25 24 24 24 24 22 21 21 21 21 20 20 20 19 19 18 17 15 14 13 13 12 11 11 10 10 10 10 9 9 9 9 9 10 10 10 10 10 11 11 12 13 13 14 15 15 16 17 18 19 20 21 23 24 25 26 27 28 29 30 30 30 30 30 30 31 32 33 34 35 36 36 35 33 32 29 28 28 28 29 30 29
27 26 25 25 24 24 24 23 22 21 21 21 21 20 20 20 20 19 17 16 15 14 14 13 13 12 11 11 10 10 9 9 9 9 9 9 9 9 9 10 10 10 11 12 12 13 13 14 15 16 17 17 18 19 21 22 23 24 25 26 27 28 30 30 30 30 29 30 31 32 33 34 35 35 36 35 34 32 30 28 27 28 28 29 29
Wind_Direction
217 220 217 211 207 201 194 191 189 188 188 189 190 192 192 194 196 199 205 209 213 218 221 223 225 225 229 235 239 248 258 262 268 273 278 288 295 299 303 305 308 309 310 311 312 312 312 312 311 311 311 309 309 309 309 309 308 307 307 306 306 305 304 302 300 300 299 299 299 298 297 295 294 293 294 294 294 294 295 296 296 296 296 294 292
212 213 212 209 206 203 200 193 185 181 184 190 193 195 197 200 203 207 211 214 218 223 225 226 228 228 232 238 241 249 259 263 267 275 283 289 293 299 302 303 306 308 310 311 311 313 313 312 312 312 311 310 309 309 309 309 309 308 308 307 307 306 306 305 304 303 301 301 301 300 299 297 294 293 294 295 294 293 294 295 295 296 297 295 293
202 198 198 202 195 190 193 192 186 182 183 189 194 197 202 205 207 211 213 217 223 228 229 228 229 231 236 241 242 247 256 262 269 276 282 286 290 297 299 298 300 303 306 308 309 311 312 311 311 311 311 310 309 309 309 309 308 308 308 307 307 306 306 305 305 305 304 303 302 300 300 300 297 293 293 294 293 293 293 293 293 296 296 295 294
196 194 202 211 203 192 192 190 187 187 184 190 199 203 205 205 208 214 217 222 226 230 230 228 229 232 238 240 241 245 251 258 268 274 277 282 288 294 297 298 300 302 305 309 310 312 312 312 311 310 310 310 309 308 308 308 307 307 307 306 306 306 305 305 304 304 304 304 303 301 300 298 296 296 297 296 293 291 292 292 293 294 294 294 294
206 203 209 216 211 207 203 193 187 189 189 195 202 204 204 205 212 220 224 227 228 230 229 228 231 234 237 240 242 247 252 258 264 268 273 279 286 291 295 298 300 302 305 309 310 311 312 312 312 311 311 311 310 308 307 307 306 305 305 304 304 304 304 304 303 302 302 302 301 301 300 298 297 298 298 296 293 292 292 292 292 292 292 292 292
203 199 202 203 201 199 192 185 185 192 197 200 200 203 208 214 221 225 227 229 230 231 231 233 236 239 242 245 248 250 254 259 262 267 273 278 283 286 291 296 299 301 304 307 308 309 311 312 312 311 311 310 310 307 306 305 304 303 303 302 301 301 301 301 301 300 300 300 298 298 298 297 297 298 297 295 294 293 292 291 291 291 291 292 291
188 189 193 190 187 188 187 187 190 194 197 200 202 208 217 221 224 226 228 231 233 235 237 239 242 244 248 251 253 254 255 259 264 269 275 277 280 282 286 292 297 300 302 304 306 307 308 309 310 310 310 309 309 307 306 305 303 302 301 300 300 299 299 299 299 299 299 298 297 297 296 296 296 296 296 295 294 293 292 291 291 290 291 291 290
191 190 191 189 190 195 200 201 199 197 198 204 211 217 222 223 224 227 230 234 237 239 241 243 246 248 251 253 255 256 257 261 265 271 274 276 279 281 284 289 294 298 300 301 303 305 306 307 309 309 309 310 310 309 309 308 306 304 303 301 300 299 299 298 298 298 297 297 296 296 295 295 295 295 295 295 294 294 293 293 291 290 290 290 290
197 195 191 191 192 193 195 194 194 197 201 207 215 220 221 221 223 227 232 238 240 242 244 247 250 252 253 255 256 258 260 263 267 271 274 276 278 281 284 288 292 296 299 301 302 304 306 307 309 310 311 312 312 311 312 311 310 308 306 304 302 301 300 298 297 296 296 296 296 295 295 295 295 294 294 294 294 293 293 294 293 292 290 289 290
198 196 191 190 190 190 190 190 195 204 208 214 218 220 221 222 226 230 235 240 242 244 247 250 255 256 257 259 259 261 263 265 268 271 274 277 279 281 282 286 290 295 298 300 303 305 307 309 311 312 313 313 313 313 313 313 312 311 309 307 305 303 301 300 298 296 295 295 295 295 294 294 294 294 294 294 294 293 293 293 293 292 291 290 290
198 196 194 192 192 194 194 194 202 211 214 219 220 221 225 228 232 235 239 244 246 249 251 254 258 260 262 264 264 265 265 267 270 273 275 277 279 280 282 285 291 295 297 299 302 305 308 311 311 312 313 314 314 314 314 313 313 312 311 309 308 306 304 302 300 299 297 296 295 294 294 294 294 294 294 294 294 293 293 293 293 292 292 291 290
198 197 196 194 194 197 198 200 207 212 214 219 223 227 233 235 238 242 246 249 252 255 258 260 262 264 266 267 268 268 268 270 272 274 277 279 280 281 282 286 291 295 297 299 303 306 307 309 310 311 312 313 313 314 314 314 313 312 311 310 309 307 306 304 302 301 300 299 297 295 293 293 293 293 293 293 293 293 294 293 293 293 292 291 291
199 198 198 198 198 200 202 206 210 214 217 222 229 235 240 242 246 250 254 257 259 262 264 264 265 266 267 268 269 270 270 272 274 275 278 279 281 282 283 285 290 295 298 300 303 305 306 307 309 310 311 312 313 313 313 314 313 312 311 310 309 308 307 305 303 302 301 299 298 296 294 293 293 292 293 293 292 293 293 293 293 293 292 291 291
201 202 203 203 202 202 205 210 214 217 221 226 233 240 245 249 253 257 262 265 266 266 267 266 265 267 268 268 268 268 269 271 273 275 277 279 280 282 283 286 290 294 297 299 301 303 304 306 308 310 311 312 313 313 313 313 313 312 311 310 309 308 307 306 304 303 301 300 298 297 295 294 293 293 293 292 292 292 292 293 293 292 291 291 290
203 205 206 204 203 204 206 212 216 219 223 228 234 240 245 251 256 261 267 269 269 269 268 267 267 269 269 268 267 267 268 269 271 274 276 279 280 282 284 286 288 292 295 298 300 302 304 306 308 310 311 312 312 313 312 312 312 311 310 310 309 308 308 307 305 304 303 302 300 298 296 295 294 293 293 292 292 291 291 292 293 292 292 291 291
205 207 206 205 205 207 211 216 218 219 222 225 231 238 243 250 259 265 270 273 274 273 271 270 270 270 269 268 267 267 268 269 271 273 276 277 279 281 284 285 287 290 293 297 300 302 304 306 308 310 311 311 312 313 313 312 312 311 310 311 310 309 309 308 307 305 304 303 302 300 298 296 295 294 293 292 292 291 291 291 292 293 293 292 291
206 207 207 207 208 211 216 220 220 221 222 223 229 239 246 255 265 270 274 277 280 279 276 275 274 273 271 269 269 269 270 271 272 274 275 276 278 280 282 284 287 289 293 296 300 302 304 306 308 309 311 312 312 313 313 312 312 311 311 312 312 311 310 309 308 306 305 303 302 301 300 297 296 295 294 293 292 291 291 291 291 291 291 291 290
207 207 207 208 209 213 218 222 223 224 226 227 233 244 254 263 270 272 274 278 282 282 281 281 278 277 275 272 272 272 272 273 274 275 276 277 278 280 282 285 287 290 293 296 299 302 304 306 308 309 311 312 312 313 313 313 312 312 312 312 312 312 311 310 309 308 306 304 303 302 300 298 298 298 296 294 293 292 292 291 291 290 290 290 289
209 209 211 212 212 215 219 222 222 226 230 233 238 248 258 267 271 271 272 277 282 283 283 283 281 280 279 277 276 275 274 275 275 276 277 278 280 282 284 286 288 292 295 297 300 302 304 306 308 309 311 312 313 313 313 314 313 313 313 313 313 313 312 312 311 310 308 306 305 303 301 300 299 299 298 296 294 293 293 292 290 290 289 289 288
210 211 214 214 213 215 218 219 220 226 233 235 239 248 258 266 270 269 270 275 279 283 284 284 283 281 280 279 277 276 275 275 275 277 279 280 281 282 285 287 290 293 296 298 300 302 304 307 308 309 310 312 313 314 315 315 315 315 315 315 315 315 314 313 312 311 309 308 306 304 302 301 300 300 299 297 296 295 294 293 291 290 289 288 288
211 213 214 213 213 214 215 218 222 227 233 236 241 250 259 266 269 270 272 275 278 282 283 282 282 279 278 279 278 277 276 276 276 278 280 281 282 283 286 289 292 295 298 299 301 303 305 306 308 310 311 313 314 315 316 316 316 317 317 316 316 316 315 314 312 312 310 309 307 306 304 303 302 301 300 298 297 296 295 294 292 291 290 289 288
212 214 214 214 215 216 217 220 224 228 233 238 244 252 260 265 268 270 273 275 277 280 280 279 278 277 278 280 281 280 279 278 279 279 280 282 283 285 288 290 293 296 299 300 301 303 305 307 308 311 313 314 315 316 317 317 317 318 317 317 316 316 315 314 313 312 310 309 308 306 305 304 303 302 301 299 298 297 296 295 293 291 290 289 288
213 214 215 216 218 220 220 223 227 230 234 239 247 254 260 263 266 269 272 274 276 277 278 278 278 278 280 281 282 283 281 281 282 281 282 283 284 287 290 292 295 297 299 301 302 304 306 308 310 312 314 316 317 317 318 318 318 318 318 317 316 316 315 314 312 311 310 309 308 306 305 304 303 302 302 300 299 298 297 296 294 292 291 289 289
215 216 217 219 221 223 224 226 230 233 237 242 249 256 259 260 264 268 270 272 274 276 277 278 278 278 280 281 282 282 281 282 283 283 284 285 286 289 292 294 296 297 299 301 304 306 308 310 312 314 316 317 318 318 318 318 318 318 318 317 317 316 315 314 313 311 310 309 308 307 306 305 303 302 302 300 299 299 298 296 295 293 291 290 289
215 216 217 219 222 225 227 230 233 235 238 243 249 254 255 257 261 263 265 268 271 273 275 277 278 278 279 280 281 282 282 283 283 284 286 287 289 291 293 295 297 299 301 304 306 309 310 312 314 316 317 318 319 319 319 319 319 318 318 317 317 316 315 314 313 312 311 310 308 307 306 305 304 302 302 301 300 299 298 296 294 293 291 290 288
213 215 216 218 221 225 227 230 233 235 239 244 250 253 253 254 257 259 261 264 267 271 274 276 276 276 277 279 281 282 284 285 285 287 288 290 291 292 294 297 299 301 304 306 309 310 312 314 315 317 318 319 320 321 321 320 320 319 318 317 317 317 316 315 313 312 311 310 309 308 307 306 305 304 303 302 301 299 297 296 294 293 291 289 288
213 214 216 218 220 224 225 228 231 234 239 245 248 250 250 250 252 255 258 261 265 269 272 273 273 274 277 279 282 284 286 288 289 291 292 293 293 295 297 299 302 305 306 308 310 312 313 315 316 317 319 320 322 322 322 321 321 320 319 318 318 318 317 316 314 313 312 311 311 309 308 307 306 306 305 304 302 300 298 296 294 292 290 289 287
212 215 216 217 221 224 225 227 230 235 239 243 246 247 247 247 248 251 255 259 264 268 270 270 271 273 277 281 284 287 289 291 293 294 294 295 296 298 301 302 304 306 308 311 313 314 315 316 317 318 320 321 323 323 324 323 322 321 320 319 319 319 318 317 316 315 314 313 312 311 309 308 307 307 307 306 305 303 300 298 296 293 291 289 286
214 217 219 221 223 224 225 227 231 235 237 240 242 242 242 243 246 250 254 258 263 266 267 268 270 273 277 282 285 288 290 291 293 294 296 298 300 302 303 305 307 309 311 314 315 315 316 317 318 319 320 323 324 324 324 324 324 323 321 320 320 320 319 318 317 316 315 315 314 313 311 310 309 309 308 307 306 305 303 300 298 295 292 289 287
217 219 221 224 224 224 226 229 232 233 234 236 237 237 238 241 244 248 253 257 260 262 264 266 269 273 277 282 286 288 289 291 293 296 298 301 302 303 305 308 311 313 314 315 316 316 317 319 320 321 321 322 324 325 325 325 325 324 323 321 321 321 320 320 319 318 317 317 316 315 313 313 312 311 309 308 307 307 304 301 299 296 293 290 287
218 219 221 223 223 225 227 229 230 231 232 232 232 234 236 239 243 248 252 255 257 259 261 264 268 272 277 282 285 287 289 292 295 298 301 303 304 306 309 312 313 315 315 316 317 319 320 321 322 323 322 323 325 327 327 327 326 326 324 323 323 322 322 321 321 320 319 319 318 317 316 315 313 313 311 310 310 309 306 304 301 298 294 291 287
218 219 220 222 223 225 226 227 228 228 228 228 229 232 235 238 243 247 250 253 255 257 260 263 266 270 275 280 283 286 289 292 297 300 303 305 307 310 313 314 315 316 317 319 321 322 323 323 323 324 325 326 327 328 329 328 328 328 327 325 324 324 324 323 323 323 321 321 320 319 318 317 316 315 314 312 312 311 308 306 303 300 297 293 288
219 220 221 222 224 225 225 225 225 225 225 226 228 231 234 238 242 245 248 250 253 255 257 259 263 267 271 276 279 283 288 292 297 302 305 308 310 313 314 314 316 318 320 322 324 324 325 325 324 325 327 328 329 330 330 331 330 329 329 328 327 326 326 326 326 325 324 323 322 322 320 319 318 318 316 315 314 312 309 307 304 301 298 295 292
220 221 221 222 222 222 222 223 223 224 224 225 228 230 233 237 240 243 246 248 250 252 253 255 258 262 265 269 274 280 286 293 299 303 307 310 312 313 314 316 318 320 322 324 325 325 326 327 326 326 327 330 331 332 332 333 332 331 331 330 329 329 329 328 328 327 326 325 325 324 323 322 321 320 319 318 316 314 311 308 305 302 299 296 294
220 220 220 220 218 218 220 221 221 221 221 224 227 228 231 235 239 242 244 245 246 247 248 249 252 255 258 263 270 277 285 293 299 304 307 310 312 314 317 319 321 322 323 324 325 326 327 328 329 329 329 330 332 333 334 335 335 334 333 332 331 331 331 330 330 330 329 328 327 327 326 325 324 322 322 321 319 317 313 310 306 303 300 297 294
219 219 218 217 217 218 218 218 218 219 219 222 224 226 230 234 238 240 241 241 242 241 242 243 245 247 252 259 267 276 285 293 298 303 307 311 313 317 320 321 322 323 324 325 326 327 329 330 331 331 330 331 333 336 337 338 338 337 335 334 333 333 333 333 332 332 331 331 330 330 329 329 327 325 325 324 323 320 317 313 310 308 304 300 295
217 217 216 215 216 216 215 215 216 216 218 220 222 225 230 233 236 238 238 237 237 236 237 237 238 243 249 257 266 275 285 291 296 302 308 312 316 319 321 322 323 324 325 326 327 329 330 331 332 332 331 332 334 338 339 340 340 340 337 335 335 335 335 335 335 335 334 334 333 333 332 332 330 329 329 328 327 325 322 319 316 314 310 305 300
213 212 212 213 214 214 213 213 213 215 218 220 222 226 229 232 234 235 234 233 233 232 232 233 235 241 248 257 266 276 284 290 296 303 309 314 318 319 320 321 323 325 326 327 329 330 331 332 332 333 334 334 335 338 340 341 342 342 340 338 337 337 337 338 338 338 337 337 336 336 336 335 334 333 333 332 331 329 327 324 321 319 316 312 307
210 209 210 212 213 212 211 211 212 215 218 220 222 226 229 231 233 232 230 230 229 229 229 230 235 242 249 258 268 276 282 289 297 304 311 315 318 319 320 321 323 325 327 329 330 331 331 332 333 335 336 336 337 339 341 342 343 344 343 341 340 340 340 339 340 340 340 339 339 338 339 339 338 337 337 336 335 334 332 329 326 325 323 319 314
208 209 211 212 213 212 211 211 213 215 218 220 223 227 229 230 230 229 228 227 226 225 225 229 235 242 250 259 268 273 280 288 298 306 312 315 317 318 320 323 325 326 328 329 330 331 332 334 335 336 337 339 339 340 341 343 343 344 345 344 342 342 342 341 342 342 342 342 341 341 341 341 341 341 340 340 339 338 336 334 333 331 328 325 321
207 209 211 212 212 212 211 212 214 216 218 221 225 227 228 229 228 226 225 223 222 222 224 229 236 242 251 260 265 270 278 289 300 307 312 315 316 318 321 324 326 327 329 330 330 331 332 334 336 338 339 340 341 342 343 344 344 345 346 346 345 345 344 343 344 344 344 344 343 343 343 344 344 343 343 343 342 342 341 340 339 337 334 331 329
208 210 212 212 212 211 211 213 216 217 219 222 225 226 227 227 224 222 221 219 219 221 224 230 237 245 252 257 261 269 280 291 300 307 311 314 316 319 322 324 326 328 329 330 331 332 333 334 336 337 339 340 341 343 344 345 345 345 346 347 347 347 346 345 345 346 346 345 345 345 345 346 346 345 345 345 345 346 346 346 345 344 341 339 336
208 209 210 211 212 212 212 214 216 217 220 222 224 225 225 223 220 219 218 218 218 221 225 231 239 246 250 254 260 270 282 292 300 306 310 314 317 320 323 324 325 326 328 330 331 332 333 335 336 337 339 341 341 343 345 347 347 346 346 347 347 347 347 347 347 347 347 347 347 347 346 347 347 347 347 346 347 349 351 351 350 349 347 346 344
209 210 210 211 212 212 213 215 216 218 221 223 224 223 221 219 217 216 216 217 218 222 226 233 240 244 246 252 260 271 282 292 299 305 309 313 317 319 322 324 325 326 327 329 331 333 334 336 337 338 339 341 342 343 345 348 348 348 347 347 347 347 348 348 348 348 348 348 348 348 348 348 349 350 350 350 350 352 354 355 356 355 353 353 351
210 210 210 211 212 213 213 214 216 219 222 223 223 220 217 216 215 215 215 216 218 222 228 234 238 241 244 251 261 272 283 291 298 303 307 311 314 316 319 322 325 326 329 330 332 335 336 337 338 339 340 342 344 345 347 348 349 349 349 349 349 349 349 348 348 349 349 349 349 349 349 350 351 352 353 353 354 355 356 358 360 359 358 358 357
210 210 210 211 212 212 212 213 216 219 221 222 221 217 215 215 215 214 215 216 219 223 228 232 235 238 242 251 262 272 282 289 295 300 303 307 312 315 318 321 324 327 329 332 334 336 337 337 338 340 341 342 344 346 348 349 350 351 351 351 351 351 351 350 350 350 351 351 351 352 353 354 354 355 355 356 357 357 358 0 2 2 1 1 1
210 209 210 211 212 212 213 214 216 219 220 220 219 216 215 216 215 214 215 217 219 224 228 230 232 235 242 252 262 271 279 286 291 296 300 305 310 314 318 321 324 327 330 332 335 336 337 338 339 340 341 343 345 347 349 351 352 352 353 353 353 353 353 353 352 352 353 354 354 356 357 357 357 358 358 358 359 359 359 1 4 4 4 4 4
210 210 211 213 214 214 215 216 217 219 220 219 217 216 215 215 214 213 215 217 220 224 227 227 229 235 243 253 262 269 276 282 287 292 298 304 309 314 318 322 326 329 331 333 335 336 337 338 340 341 343 344 346 348 350 352 353 353 354 355 356 356 355 355 355 355 355 356 357 358 359 360 360 0 0 0 0 1 1 2 4 6 6 5 6
211 211 213 214 215 215 215 215 215 217 218 217 216 215 213 212 211 213 215 217 219 222 225 226 229 236 244 252 260 266 273 279 285 290 297 304 309 313 318 322 327 331 333 335 335 337 339 340 341 342 344 346 347 349 351 352 353 353 354 356 357 357 357 357 357 357 357 358 359 1 2 2 2 2 3 2 2 2 3 2 4 7 8 7 7
211 212 213 214 214 214 213 212 213 214 215 214 213 213 212 211 212 213 215 217 219 222 224 226 230 237 244 250 258 265 271 278 284 289 295 303 309 314 317 320 325 331 333 335 336 337 340 342 343 344 346 347 348 350 351 352 353 354 355 356 357 358 359 360 359 359 359 0 2 3 3 4 4 4 5 4 4 3 4 3 4 7 10 10 9
210 211 211 211 211 210 209 210 212 212 211 210 211 212 212 212 212 212 213 216 218 221 224 227 232 238 243 249 257 264 270 277 283 287 292 298 304 311 316 319 323 328 330 332 335 336 339 342 344 345 347 348 349 350 351 352 353 354 355 356 357 358 0 1 1 1 2 3 4 5 5 6 6 6 6 6 6 6 6 5 5 7 10 13 13